Regional Weather Roundup
Issued by NWS

Home | Current Version | Previous Version | Graphics & Text | Print | Product List | Glossary On
Versions: 1 2 3 4 5 6 7 8 9 10 11 12 13 14 15 16 17 18 19 20 21 22 23 24 25 26 27 28 29 30 31 32 33 34 35 36 37 38 39 40 41 42 43 44 45 46 47 48 49 50
739
ASUS43 KMPX 201510
RWRMN
WEATHER ROUNDUP FOR MINNESOTA
NATIONAL WEATHER SERVICE TWIN CITIES/CHANHASSEN MN
900 AM CST MON FEB 20 2017


NOTE: "FAIR" INDICATES FEW OR NO CLOUDS BELOW 12,000 FEET WITH NO
SIGNIFICANT WEATHER AND/OR OBSTRUCTIONS TO VISIBILITY. N/A MEANS
CURRENT SKY AND/OR WEATHER CONDITIONS ARE NOT AVAILABLE.

MNZ060>063-068>070-201600-
   Twin Cities Metro

CITY           SKY/WX    TMP DP  RH WIND       PRES   REMARKS
TWIN CITIES    CLOUDY    50  43  77 E8        29.80F
ST PAUL        CLOUDY    50  46  86 SE9       29.81F
CRYSTAL        CLOUDY    64  43  46 SE10      29.78F
BLAINE         CLOUDY    52  46  82 SE12      29.80F
LAKEVILLE      CLOUDY    48  46  93 SE8       29.80S
EDEN PRAIRIE   CLOUDY    50  45  83 E7        29.78S
SOUTH ST PAUL  CLOUDY    50  44  80 SE6       29.80F
LAKE ELMO      FAIR      52  46  82 SE12G17   29.83F
$$
MNZ001>005-007-008-013>017-022>024-027-028-201600-
   Northwest Minnesota

CITY           SKY/WX    TMP DP  RH WIND       PRES   REMARKS
BEMIDJI        CLOUDY    40  37  91 SE7       29.69F
HALLOCK        FOG       36  36 100 SW5       29.61S VSB 1/4
ROSEAU         RAIN      39  36  87 S9        29.66R
WARROAD        LGT RAIN  41  37  87 SE9       29.67F
THIEF RVR FALL LGT RAIN  42  41  96 SE12      29.65S FOG
CROOKSTON      DRIZZLE   43  43 100 S12       29.64S
FOSSTON        CLOUDY    43  43 100 SE8       29.65F FOG
DETROIT LAKES  LGT RAIN  43  41  93 S10       29.68S VSB 3/4
MOORHEAD       LGT RAIN  50  48  93 SW14      29.64F
PARK RAPIDS    CLOUDY    45  41  86 SE7       29.69F
MAHNOMEN       DRIZZLE   46  45  97 SE10      29.64F
$$
MNZ006-009>011-018-025>026-201600-
   North Central Minnesota

CITY           SKY/WX    TMP DP  RH WIND       PRES   REMARKS
BAUDETTE       LGT RAIN  40  38  93 S6        29.70R
FLAG ISLAND    LGT RAIN  36  34  93 S13       29.70R
INTL FALLS     CLOUDY    43  35  73 SE9       29.75F
WASKISH        CLOUDY    45  39  81 SE13G20   29.68F
BIG FORK       CLOUDY    45  37  76 SE12G17   29.74F
LONGVILLE      CLOUDY    45  39  81 SE7       29.74S
GRAND RAPIDS   CLOUDY    43  36  76 SE13      29.78F
CRANE LAKE     CLOUDY    43  36  75 CALM      29.81S
ORR            CLOUDY    45  34  65 SE7       29.76R
COOK           CLOUDY    45  37  76 SE7       29.80S
WALKER         CLOUDY    43  39  86 E3        29.71F
$$
MNZ012-019>021-037-201600-
   Northeast Minnesota

CITY           SKY/WX    TMP DP  RH WIND       PRES   REMARKS
DULUTH         CLOUDY    41  35  79 SE13      29.86S
ELY            CLOUDY    41  34  75 SE13      29.85F
HIBBING        CLOUDY    40  36  86 SE10      29.81F
EVELETH        CLOUDY    44  33  64 SE9       29.84F
DULUTH HARBOR  CLOUDY    36  34  93 NE14      29.90F
TWO HARBORS    CLOUDY    43  36  75 NE6       29.89S
GRAND MARAIS     N/A     40  32  73 NE13G20   30.00S
G MARAIS ARPRT CLOUDY    36  27  69 E8        29.97F
$$
MNZ029>031-032-039>041-046>048-054>057-064-201600-
   West Central Minnesota

CITY           SKY/WX    TMP DP  RH WIND       PRES   REMARKS
FERGUS FALLS   DRIZZLE   48  48 100 SE12      29.71S
WHEATON        RAIN      50  48  93 SE14G20   29.67S
MORRIS         RAIN      48  48 100 SE8       29.67F
ALEXANDRIA     CLOUDY    52  50  93 S14       29.69R FOG
ELBOW LAKE     RAIN      49  49  98 S14       29.68F
WADENA         CLOUDY    46  45  93 CALM      29.69S FOG
GLENWOOD       DRIZZLE   52  50  93 S14       29.69F
APPLETON       HVY RAIN  52  48  87 SE6       29.67F
BENSON         LGT RAIN  54  46  76 S12       29.71F
ORTONVILLE     LGT RAIN  48  46  93 CALM      29.65F
WILLMAR        CLOUDY    52  48  87 S15G21    29.73S
$$
MNZ033>034-036-042>043-049>051-058-059-201600-
   Central Minnesota

CITY           SKY/WX    TMP DP  RH WIND       PRES   REMARKS
ST CLOUD       CLOUDY    49  45  86 SE8       29.75F
SAUK CENTRE    LGT RAIN  48  46  93 SE8       29.71S
PAYNESVILLE    CLOUDY    50  46  86 SE7       29.72F
AITKIN         CLOUDY    48  39  71 SE10      29.75F
PINE RIVER     CLOUDY    45  41  87 SE9       29.76F
BRAINERD       CLOUDY    48  43  82 SE9       29.74F
STAPLES        CLOUDY    46  45  93 SE7       29.70F
LONG PRAIRIE   CLOUDY    46  45  93 E12       29.71S
LITTLE FALLS   CLOUDY    46  43  87 SE8       29.75R
LITCHFIELD     CLOUDY    52  46  82 SE8       29.74F
BUFFALO        CLOUDY    50  44  79 SE8       29.78S
MAPLE LAKE     CLOUDY    50  46  87 SE8       29.77F
HUTCHINSON     CLOUDY    50  47  88 SE9       29.76S
$$
MNZ037-044-045-052-053-201600-
   East Central Minnesota

CITY           SKY/WX    TMP DP  RH WIND       PRES   REMARKS
PRINCETON      CLOUDY    52  45  76 SE12      29.78S
MORA           CLOUDY    45  39  81 SE7       29.82S
CAMBRIDGE      CLOUDY    54  43  66 SE6       29.78S
RUSH CITY      CLOUDY    52  43  71 SE12      29.82S
MOOSE LAKE     CLOUDY    36  32  87 NE3       29.82F
HINCKLEY       PTSUNNY   46  41  81 E6        29.82F
CLOQUET        CLOUDY    39  34  81 E7        29.85F
MCGREGOR       CLOUDY    43  37  81 SE12      29.79F
$$
MNZ071>073-080-081-089-090-097-098-201600-
   Southwest Minnesota

CITY           SKY/WX    TMP DP  RH WIND       PRES   REMARKS
MONTEVIDEO     LGT RAIN  52  52 100 S9        29.71R
GRANITE FALLS  LGT RAIN  51  49  93 SE10G16   29.70S
CANBY          DRIZZLE   56  54  91 SE9       29.67S
MARSHALL       LGT RAIN  58  56  93 S17       29.68R
REDWOOD FALLS  CLOUDY    50  45  83 SE12      29.72S
OLIVIA         CLOUDY    52  46  82 S14       29.72S
PIPESTONE      RAIN      54  48  82 S12       29.68F
WINDOM         CLOUDY    54  50  87 S12       29.73F
WORTHINGTON    LGT RAIN  51  50  96 S14       29.72F FOG
JACKSON        CLOUDY    48  45  87 S13       29.76S
TRACY          LGT RAIN  58  56  94 S14       29.70S
SLAYTON        RAIN      53  52  99 S14       29.71F
$$
MNZ065>067-074>077-082>085-091>093-201600-
   South Central Minnesota

CITY           SKY/WX    TMP DP  RH WIND       PRES   REMARKS
MANKATO        LGT RAIN  50  47  89 SE16      29.76F
NEW ULM        DRIZZLE   52  46  82 S8        29.75S
ST JAMES       LGT RAIN  50  48  93 S7        29.76S
FAIRMONT       LGT RAIN  52  48  87 S15       29.77R FOG
GLENCOE        CLOUDY    51  49  92 SE9       29.76S
FARIBAULT      CLOUDY    52  48  87 SE12G20   29.80F
OWATONNA       CLOUDY    50  46  87 SE14G24   29.81S
WASECA         LGT RAIN  50  45  81 SE16      29.81S
ALBERT LEA     LGT RAIN  48  46  93 SE12      29.82F
$$
MNZ078>079-086>088-094>096-201600-
   Southeast Minnesota

CITY           SKY/WX    TMP DP  RH WIND       PRES   REMARKS
ROCHESTER      PTSUNNY   47  46  97 SE16      29.86F FOG
RED WING       CLOUDY    52  45  76 SE9       29.84F
STANTON        CLOUDY    52  47  81 SE17G25   29.79F
DODGE CENTER   CLOUDY    46  45  93 SE16      29.83F FOG
WINONA         PTSUNNY   48  43  81 SE7       29.92S
AUSTIN         LGT RAIN  48  46  93 S8        29.85S
PRESTON        CLOUDY    47  45  90 SE10G20   29.88F FOG
$$
ABBREVIATIONS USED IN REMARKS
   TC - TEMPERATURES IN CELSIUS
  WCI - WIND CHILL INDEX
   HX - HEAT INDEX
  VSB - VISIBILITY
$$




USA.gov is the U.S. government's official web portal to all federal, state and local government web resources and services.